Simultaneous Nadir Overpasses (SNOs) Predictions

Prediction of SNOs between GOES-16 and LANDSAT-8 Satellite Orbit:

Table of predicted SNOs for the next 14.0 days since TLE Epoch: 4/1/2023
Index Date Time (GOES-16) GOES-16 Lat,Lon LANDSAT-8 Lat,Lon Distance(km) Time Diff (sec)
1 04/02/2023 15:02:48 0.06, -75.21 -0.52, -72.42 316.72 80
2 04/03/2023 03:24:12 -0.06, -75.21 -0.56, -77.62 273.67 80
3 04/05/2023 03:09:18 -0.06, -75.23 0.06, -74.66 65.12 80
4 04/07/2023 02:57:04 -0.06, -75.25 0.70, -71.70 404.57 80
5 04/07/2023 15:18:19 0.06, -75.26 0.38, -76.85 180.44 80
6 04/09/2023 15:08:44 0.06, -75.29 -0.25, -73.89 159.37 80
7 04/10/2023 03:30:07 -0.05, -75.29 -0.87, -79.07 430.42 80
8 04/11/2023 14:56:29 0.05, -75.31 -0.89, -70.92 499.23 80
9 04/12/2023 03:17:52 -0.05, -75.31 -0.21, -76.11 90.52 80
10 04/14/2023 03:02:56 -0.04, -75.34 0.41, -73.14 249.93 80
11 04/14/2023 15:24:10 0.04, -75.35 0.64, -78.30 334.95 80
